sat.trackr.live / text

‹ back to catalog

GSAT-7

NORAD 39234 · 2013-044B

PAYLOAD ACTIVE UNKNOWN

§ Identity

Operator
Country
IND
Launch date
2013-08-29
Launch site
FRGUI
Launch vehicle
Mass (kg)
RCS (m²)
14.29

Purposes: comms

External: N2YO · Heavens-Above · Gunter

§ Orbital elements

Epoch: 2026-05-25T02:23:08.127168Z

Period
1,436.10 min
Inclination
0.0918°
Eccentricity
0.0003502
Mean motion
1.00271514 rev/d
Perigee alt
35,771.9 km
Apogee alt
35,801.4 km
Semi-major
42,164.8 km
B*
0.0000e+0
RAAN
92.6294°
Arg perigee
204.7908°
Mean anomaly
55.0639°
Rev number
4,502

§ Raw data

GSAT-71 39234U 13044B   26145.09939962 -.00000079  00000+0  00000+0 0  99932 39234   0.0918  92.6294 0003502 204.7908  55.0639  1.00271514 45023

JSON: /api/v1/satellites/39234 · /tle

For live sub-satellite position, see the globe view (requires WebGL).

§ Visibility from observer

Set your observer location to see the next 7 days of passes ≥ 10°. The values pass through the URL so the page stays shareable.

No JS? Fill the form by hand. The geolocation button needs JavaScript.